Location: Kruen
(47.5000°N, 11.5000°E)
Time: 16:52:58
(UTC+02:00)

DX 1 - Visible Passes

Search period start: 19 April 2026 00:00
Search period end: 29 April 2026 00:00
Orbit: 593 x 605 km, 98.4° (Epoch: 19 April)

Date Brightness Start Highest point End Pass type
(mag) Time Alt. Az. Time Alt. Az. Time Alt. Az.
19 Apr ? 03:57:05 10° NNE 04:01:07 43° E 04:03:13 24° SSE visible
19 Apr ? 05:33:20 10° NNW 05:36:28 21° WNW 05:39:36 10° WSW visible
20 Apr ? 04:07:38 10° NNE 04:11:46 56° ESE 04:14:06 24° S visible
21 Apr ? 04:18:12 10° NNE 04:22:24 73° ESE 04:24:57 23° S visible
22 Apr ? 04:28:49 10° NNE 04:33:02 88° WNW 04:35:49 21° SSW visible
23 Apr ? 03:05:40 10° ENE 03:07:33 13° E 03:09:27 10° ESE visible
23 Apr ? 04:39:28 10° N 04:43:38 69° WNW 04:46:41 18° SSW visible
24 Apr ? 03:15:38 10° NE 03:18:17 16° E 03:20:49 10° SE visible
24 Apr ? 04:50:08 10° N 04:54:14 53° WNW 04:57:32 15° SW visible
25 Apr ? 03:25:51 10° NE 03:29:00 20° E 03:31:40 12° SE visible
25 Apr ? 05:00:51 10° N 05:04:49 42° WNW 05:08:24 12° SW visible
26 Apr ? 03:36:11 10° NE 03:39:42 25° E 03:42:31 13° SE visible
26 Apr ? 05:11:35 10° N 05:15:22 33° WNW 05:19:09 10° SW visible
27 Apr ? 03:46:35 10° NNE 03:50:23 32° E 03:53:21 15° SSE visible
27 Apr ? 05:22:21 10° N 05:25:54 27° WNW 05:29:27 10° WSW visible
28 Apr ? 03:57:03 10° NNE 04:01:03 41° E 04:04:12 15° SSE visible
